Location: Kelowna
(49.8880°N, 119.4960°W)
Time: 21:56:57
(UTC-07:00)

AO-27 - Pass Details

Date: 06 August 2024
Orbit: 783 x 796 km, 98.8° (Epoch: 19 September)

Event Time Altitude Azimuth Distance (km) Brightness Sun altitude
Exits shadow 21:22:44 - 165° (SSE) 3,024 10.2 -7.9°
Reaches altitude 10° 21:24:25 10° 166° (SSE) 2,353 9.7 -8.1°
Maximum altitude 21:29:38 84° 254° (WSW) 806 7.8 -8.8°
Drops below altitude 10° 21:34:54 10° 344° (NNW) 2,377 11.1 -9.5°
Sets 21:37:15 0° 345° (NNW) 3,312 11.9 -9.8°
